Location: Karcze
(52.0945°N, 22.4786°E)
Time: 02:55:13
(UTC+00:00)

Transit 2A Rocket - Pass Details

Date: 31 July 2021
Orbit: 586 x 917 km, 66.7° (Epoch: 27 September)

Event Time Altitude Azimuth Distance (km) Brightness Sun altitude
Rises 16:19:30 0° 288° (WNW) 2,997 9.7 16.8°
Reaches altitude 10° 16:22:31 10° 310° (NW) 2,147 8.5 16.3°
Maximum altitude 16:25:41 17° 350° (N) 1,790 7.3 15.8°
Drops below altitude 10° 16:29:02 10° 31° (NNE) 2,291 7.3 15.3°
Sets 16:32:25 0° 51° (NE) 3,294 7.9 14.8°
